Hourly Data Report for July 26, 2012

HALIFAX STANFIELD INT'L A
NOVA SCOTIA

44°52'48.060" N
63°30'00.050" W
145.40 m
8202250
71395
YHZ

Download Data

Hourly Data (July 2012)
Hourly Data Report for July 26, 2012
TIME
LST
Temp Definition
°C
Dew Point Definition
°C
Rel Hum Definition
%
Precip. Amount Definition
mm

Wind Dir Definition
10's deg

Wind Spd Definition
km/h
Visibility Definition
km
Stn Press Definition
kPa
Hmdx Definition


Wind Chill Definition


Weather Definition


00:00 14.4 11.8 84   33 9 24.1 98.71     Clear
01:00 14.9 12.4 85   30 11 24.1 98.71     Clear
02:00 14.2 12.5 90   28 11 24.1 98.74     Clear
03:00 13.8 12.5 92   28 11 24.1 98.71     Clear
04:00 14.0 12.3 89   27 6 24.1 98.71     Mainly Clear
05:00 13.6 11.4 87   26 9 24.1 98.69     Mainly Clear
06:00 15.4 11.9 80   28 13 24.1 98.73     Clear
07:00 17.2 13.1 77   28 15 24.1 98.78     Mostly Cloudy
08:00 17.7 12.2 70   30 17 24.1 98.83     Mostly Cloudy
09:00 19.0 11.9 63   31 17 24.1 98.82     Mostly Cloudy
10:00 20.1 12.3 61   28 9 24.1 98.81     Mostly Cloudy
11:00 23.3 12.3 50   29 20 24.1 98.81 26   Mostly Cloudy
12:00 24.2 12.1 47   29 22 24.1 98.77 27   Mostly Cloudy
13:00 25.0 11.8 44   30 24 24.1 98.78 27   Mostly Cloudy
14:00 25.9 12.9 45   27 19 24.1 98.81 29   Mostly Cloudy
15:00 25.6 11.8 42   29 20 24.1 98.84 28   Mostly Cloudy
16:00 26.4 11.7 40   31 20 24.1 98.85 29   Mostly Cloudy
17:00 24.5 12.0 46   27 20 24.1 98.86 27   Mostly Cloudy
18:00 24.8 12.4 46   22 24 24.1 98.88 27   Mainly Clear
19:00 22.9 12.3 51   22 19 24.1 98.90 25   Mainly Clear
20:00 20.5 12.0 58   22 22 24.1 98.92     Mainly Clear
21:00 18.2 12.5 69   21 19 24.1 98.95     Mainly Clear
22:00 17.7 13.5 76   22 19 24.1 98.98     Mainly Clear
23:00 17.4 14.7 84   20 15 24.1 98.95     Mostly Cloudy

Notes on Data Quality.

Legend

  • E = Estimated
  • M = Missing
  • NA = Not Available*
  • [empty] = Indicates an unobserved value
Date modified: